2016-062B

Last updated on Oct. 19, 2016, 9:17 a.m. UTC

1 41819U 16062B   16293.09628445  .00454330  11303-4  57106-3 0  9990
2 41819  51.5818 160.1807 0094475 150.1617 210.4812 15.98393210   184

Satellite is not in orbit.